Waarnemingen

Advertentie
Mijn weer
St-Auban-Sur-Durance, Frankrijk (7588): temperatuur & dauwpunt: 13.07.2018 21:00:00 - 19.07.2018 21:00:00 (CEST)St-Auban-Sur-Durance, Frankrijk (7588): temperatuur 5cm: 13.07.2018 21:00:00 - 19.07.2018 21:00:00 (CEST)St-Auban-Sur-Durance, Frankrijk (7588): temperatuur -20cm: 13.07.2018 21:00:00 - 19.07.2018 21:00:00 (CEST)St-Auban-Sur-Durance, Frankrijk (7588): windsnelheid & windstoten: 13.07.2018 21:00:00 - 19.07.2018 21:00:00 (CEST)St-Auban-Sur-Durance, Frankrijk (7588): windrichting: 13.07.2018 21:00:00 - 19.07.2018 21:00:00 (CEST)St-Auban-Sur-Durance, Frankrijk (7588): luchtdruk: 13.07.2018 21:00:00 - 19.07.2018 21:00:00 (CEST)St-Auban-Sur-Durance, Frankrijk (7588): zicht: 13.07.2018 21:00:00 - 19.07.2018 21:00:00 (CEST)St-Auban-Sur-Durance, Frankrijk (7588): Zonneschijnduur: 13.07.2018 21:00:00 - 19.07.2018 21:00:00 (CEST)St-Auban-Sur-Durance, Frankrijk (7588): neerslag: 13.07.2018 21:00:00 - 19.07.2018 21:00:00 (CEST)
Datum & Tijd tt [°C] td [°C] tt 5cm [°C] tt -20cm [°C] ff [km/u] ff [kn] fx [km/u] fx [kn] dd ppp [hPa] vv [km] sd [min] rr [mm]
19.07.2018 21:00:00 27,7 10,0 27,3 29,0 12 6 22 12 ZW 1011,5 20 16 0,0
19.07.2018 20:00:00 30,9 8,6 33,4 28,8 16 9 26 14 WZW 1010,6 20 60 0,0
19.07.2018 19:00:00 31,8 10,5 37,4 28,5 16 9 27 15 ZZW 1010,1 20 60 0,0
19.07.2018 18:00:00 32,0 10,7 35,7 28,3 21 12 32 18 ZW 1010,1 20 53 0,0
19.07.2018 17:00:00 32,7 11,3 37,5 27,9 16 9 28 15 ZZW 1010,2 20 56 0,0
19.07.2018 16:00:00 31,9 11,7 36,4 27,4 13 7 28 15 ZZW 1010,8 20 13 0,0
19.07.2018 15:00:00 31,6 13,4 40,8 26,9 15 8 28 15 Z 1011,1 20 60 0,0
19.07.2018 14:00:00 30,9 14,1 39,7 26,6 12 7 27 14 ZW 1011,6 20 60 0,0
19.07.2018 13:00:00 29,7 13,9 38,3 26,4 11 6 20 11 ZZW 1012,3 20 60 0,0
19.07.2018 12:00:00 28,1 14,0 37,0 26,2 6 4 16 8 Z 1012,8 18 60 0,0
19.07.2018 11:00:00 26,8 13,9 35,0 26,3 7 4 13 7 ZW 1013,0 20 60 0,0
19.07.2018 10:00:00 25,5 14,0 31,7 26,4 8 4 13 7 ZZW 1013,4 20 60 0,0
19.07.2018 09:00:00 23,6 14,3 27,7 26,5 6 3 13 7 ZZW 1013,5 20 60 0,0
19.07.2018 08:00:00 21,0 14,2 22,0 26,7 4 2 17 9 WZW 1013,7 20 47 0,0
19.07.2018 07:00:00 21,3 12,4 22,0 26,9 7 4 31 17 NW 1013,2 20 0 0,0
19.07.2018 06:00:00 22,2 11,9 20,5 27,1 7 4 15 8 NO 1012,7 20 0 0,0
19.07.2018 05:00:00 20,4 13,1 20,7 27,3 7 4 18 10 O 1013,0 20 0 0,0
19.07.2018 04:00:00 20,0 12,7 19,7 27,5 9 5 29 16 O 1013,5 20 0 0,0
19.07.2018 03:00:00 19,1 13,1 18,4 27,7 6 3 13 7 ONO 1014,4 20 0 0,0
19.07.2018 02:00:00 19,1 13,1 18,2 27,9 3 2 13 7 O 1015,2 20 0 0,0
19.07.2018 01:00:00 20,8 13,2 20,3 28,0 8 4 15 8 OZO 1015,3 20 0 0,0
19.07.2018 00:00:00 21,3 13,7 20,7 28,2 5 3 8 4 W 1015,5 20 0 0,0
18.07.2018 23:00:00 22,2 13,0 21,1 28,3 5 3 18 10 W 1015,0 20 0 0,0
18.07.2018 22:00:00 24,9 11,5 23,4 28,3 11 6 21 11 WZW 1013,4 20 0 0,0
18.07.2018 21:00:00 26,9 8,8 26,4 28,2 9 5 18 10 ZW 1012,3 20 6 0,0
18.07.2018 20:00:00 29,8 7,1 31,1 28,0 14 8 27 14 ZW 1011,1 20 56 0,0
18.07.2018 19:00:00 31,2 7,6 37,5 27,7 14 8 25 13 ZZW 1010,8 20 60 0,0
18.07.2018 18:00:00 31,7 10,4 39,5 27,3 14 8 24 13 ZW 1011,0 20 60 0,0
18.07.2018 17:00:00 32,1 4,8 40,8 26,8 14 8 27 15 ZZW 1011,3 20 60 0,0
18.07.2018 16:00:00 31,8 5,3 40,8 26,4 15 8 28 15 ZZW 1011,7 20 60 0,0
18.07.2018 15:00:00 31,6 7,3 39,9 26,0 19 10 30 16 ZW 1012,2 20 60 0,0
18.07.2018 14:00:00 30,8 9,6 38,9 25,6 20 11 31 17 ZW 1012,6 20 60 0,0
18.07.2018 13:00:00 29,3 13,1 38,9 25,3 19 10 28 15 ZW 1013,2 20 60 0,0
18.07.2018 12:00:00 28,8 14,2 36,5 25,2 13 7 20 11 ZZW 1013,5 20 60 0,0
18.07.2018 11:00:00 26,5 13,6 31,9 25,2 6 4 18 10 NO 1014,2 20 60 0,0
18.07.2018 10:00:00 23,8 13,6 27,5 25,3 10 6 28 15 NNO 1014,9 20 60 0,0
18.07.2018 09:00:00 22,3 13,9 24,8 25,5 13 7 26 14 NNO 1015,4 20 60 0,0
18.07.2018 08:00:00 20,5 13,2 19,9 25,7 11 6 24 13 NO 1015,3 20 60 0,0
18.07.2018 07:00:00 18,9 12,6 17,7 26,0 9 5 23 12 ONO 1015,3 20 14 0,0
18.07.2018 06:00:00 18,9 12,6 18,3 26,2 7 4 16 9 O 1015,1 20 0 0,0
18.07.2018 05:00:00 19,0 13,0 17,5 26,4 6 4 19 10 O 1014,9 20 0 0,0
18.07.2018 04:00:00 18,9 12,9 18,3 26,6 9 5 19 10 O 1014,9 20 0 0,0
18.07.2018 03:00:00 20,2 12,7 19,8 26,8 8 4 19 10 O 1014,9 20 0 0,0
18.07.2018 02:00:00 20,3 13,0 19,9 27,0 7 4 15 8 O 1014,9 20 0 0,0
18.07.2018 01:00:00 21,3 13,0 20,2 27,2 7 4 14 8 O 1014,8 20 0 0,0
18.07.2018 00:00:00 23,7 12,7 22,3 27,3 10 5 18 10 NNO 1014,1 20 0 0,0
17.07.2018 23:00:00 24,9 12,5 24,3 27,3 3 2 32 17 ONO 1013,4 20 0 0,0
17.07.2018 22:00:00 26,1 12,5 25,8 27,4 17 9 32 17 NNO 1012,4 20 0 0,0
17.07.2018 21:00:00 27,3 12,9 27,2 27,3 18 10 30 16 N 1011,5 20 17 0,0
17.07.2018 20:00:00 29,7 12,2 32,5 27,0 19 10 29 16 N 1010,7 20 60 0,0
17.07.2018 19:00:00 32,1 11,3 38,4 26,7 6 3 19 10 WZW 1010,0 20 60 0,0
17.07.2018 18:00:00 31,9 10,0 36,1 26,3 8 4 17 9 ZW 1010,1 20 47 0,0
17.07.2018 17:00:00 31,3 8,9 34,9 25,8 6 3 22 12 ZZO 1010,4 20 49 0,0
17.07.2018 16:00:00 31,1 7,5 40,0 25,3 9 5 22 12 ONO 1010,7 20 60 0,0
17.07.2018 15:00:00 30,8 7,3 38,7 24,8 11 6 25 13 NNO 1010,9 19 60 0,0
17.07.2018 14:00:00 30,2 8,6 37,0 24,4 10 5 27 15 N 1011,3 20 60 0,0
17.07.2018 13:00:00 29,2 9,8 35,5 24,2 17 9 36 19 N 1011,6 20 60 0,0
17.07.2018 12:00:00 27,9 11,0 33,0 24,1 16 9 44 24 N 1011,8 20 60 0,0
17.07.2018 11:00:00 26,5 12,2 30,0 24,2 20 11 39 21 N 1012,1 20 60 0,0
17.07.2018 10:00:00 24,5 13,7 27,2 24,3 21 11 45 24 N 1012,0 20 60 0,0
17.07.2018 09:00:00 22,5 13,0 23,5 24,4 16 8 42 23 NNO 1012,1 20 60 0,0
17.07.2018 08:00:00 21,1 12,5 20,7 24,6 22 12 41 22 N 1012,2 20 60 0,0
17.07.2018 07:00:00 20,3 12,3 18,8 24,8 19 10 37 20 NNO 1012,1 20 16 0,0
17.07.2018 06:00:00 19,4 12,4 18,4 25,0 14 8 29 15 NNO 1012,3 20 0 0,0
17.07.2018 05:00:00 19,4 12,9 18,0 25,2 16 8 32 18 NNO 1012,0 20 0 0,0
17.07.2018 04:00:00 19,2 14,0 13,8 25,4 16 9 27 15 NNO 1011,7 20 0 0,2
17.07.2018 03:00:00 14,0 13,2 14,0 25,6 3 1 9 5 ZZO 1013,3 20 0 0,0
17.07.2018 02:00:00 14,6 13,6 14,7 25,8 4 2 10 5 WZW 1013,1 20 0 0,0
17.07.2018 01:00:00 15,1 14,0 15,1 26,0 3 1 7 4 W 1012,9 20 0 0,0
17.07.2018 00:00:00 16,1 14,6 16,2 26,1 4 2 6 4 OZO 1012,4 20 0 0,0
16.07.2018 23:00:00 16,6 14,6 16,7 26,3 3 1 8 5 ZZO 1012,2 20 0 0,0
16.07.2018 22:00:00 18,0 15,4 17,9 26,4 3 2 14 8 OZO 1011,2 20 0 0,0
16.07.2018 21:00:00 19,6 14,6 20,0 26,5 11 6 17 9 ZW 1010,2 20 25 0,0
16.07.2018 20:00:00 21,2 14,6 23,5 26,5 8 4 22 12 ZW 1009,5 20 33 0,0
16.07.2018 19:00:00 22,3 15,4 25,4 26,5 5 3 14 7 ZZO 1008,7 20 0 0,0
16.07.2018 18:00:00 22,1 15,7 26,0 26,6 4 2 16 8 ZZO 1008,1 20 0 0,0
16.07.2018 17:00:00 20,7 16,1 22,0 26,6 8 4 31 17 OZO 1008,6 20 0 0,0
16.07.2018 16:00:00 18,9 16,7 18,9 26,8 6 3 26 14 ONO 1009,2 20 0 0,2
16.07.2018 15:00:00 17,8 16,1 18,0 26,9 10 5 30 16 O 1010,7 9 0 2,2
16.07.2018 14:00:00 18,1 15,7 18,0 27,1 15 8 35 19 O 1011,9 18 0 0,8
16.07.2018 13:00:00 19,1 15,6 18,2 27,2 15 8 24 13 NNO 1011,3 20 0 0,8
16.07.2018 12:00:00 19,8 15,6 19,5 27,4 12 6 21 11 NNO 1011,4 20 0 0,0
16.07.2018 11:00:00 18,5 15,7 17,5 27,5 6 4 36 19 NW 1011,7 20 0 3,1
16.07.2018 10:00:00 19,4 15,1 17,8 27,6 13 7 22 12 NO 1011,4 7 0 2,4
16.07.2018 09:00:00 22,0 12,8 22,5 27,8 8 5 28 15 NO 1010,9 20 11 0,0
16.07.2018 08:00:00 20,9 12,1 21,4 28,0 17 9 31 17 NNO 1011,6 20 0 0,0
16.07.2018 07:00:00 20,6 12,0 19,1 28,2 6 3 19 10 O 1011,7 20 7 0,0
16.07.2018 06:00:00 20,0 12,0 19,6 28,4 9 5 23 12 ONO 1012,2 20 0 0,0
16.07.2018 05:00:00 20,0 13,0 18,8 28,6 6 3 17 9 O 1012,7 20 0 0,0
16.07.2018 04:00:00 20,9 12,3 20,7 28,8 10 6 23 13 NO 1013,2 20 0 0,0
16.07.2018 03:00:00 20,8 13,5 19,5 29,0 9 5 18 10 ONO 1013,8 20 0 0,0
16.07.2018 02:00:00 20,3 14,9 18,5 29,2 7 4 15 8 O 1013,6 20 0 0,0
16.07.2018 01:00:00 19,6 14,6 18,8 29,3 4 2 6 3 ONO 1014,3 20 0 0,0
16.07.2018 00:00:00 21,4 14,5 20,0 29,4 0 0 9 5 N 1013,4 20 0 0,0
15.07.2018 23:00:00 23,6 14,9 22,0 29,5 6 3 18 10 ZZW 1012,8 20 0 0,0
15.07.2018 22:00:00 25,8 14,9 25,5 29,5 16 9 30 16 ZW 1011,7 20 0 0,0
15.07.2018 21:00:00 27,5 15,2 27,7 29,4 18 10 28 15 ZZW 1011,0 20 18 0,0
15.07.2018 20:00:00 30,4 15,3 33,7 29,2 19 10 31 17 ZW 1010,1 20 60 0,0
15.07.2018 19:00:00 31,4 14,1 38,1 29,0 16 8 35 19 ZZW 1009,8 20 60 0,0
15.07.2018 18:00:00 32,4 11,0 36,3 28,6 18 10 29 16 WZW 1010,0 20 54 0,0
15.07.2018 17:00:00 31,7 12,5 34,3 28,3 10 5 24 13 ZZW 1010,7 20 25 0,0
15.07.2018 16:00:00 30,5 12,4 35,0 27,9 8 4 19 10 O 1011,5 20 44 0,0
15.07.2018 15:00:00 30,9 12,8 39,8 27,5 8 4 20 11 O 1012,1 20 60 0,0
15.07.2018 14:00:00 29,7 10,8 36,8 27,3 10 5 27 14 NO 1013,0 20 60 0,0
15.07.2018 13:00:00 27,1 14,5 30,2 27,2 13 7 34 19 NNO 1014,0 20 58 0,0
15.07.2018 12:00:00 25,9 15,0 31,6 27,3 15 8 30 16 NO 1014,4 20 58 0,0
15.07.2018 11:00:00 23,5 15,8 24,6 27,4 15 8 32 17 NO 1015,4 20 58 0,0
15.07.2018 10:00:00 20,4 15,6 21,3 27,5 15 8 30 16 NO 1016,3 20 9 0,0
15.07.2018 09:00:00 19,1 15,8 17,2 27,7 15 8 58 32 NNO 1017,0 20 0 0,8
15.07.2018 08:00:00 18,8 14,3 17,5 27,9 11 6 21 12 ONO 1017,5 17 27 0,0
15.07.2018 07:00:00 17,0 14,1 15,6 28,2 3 2 13 7 NNO 1016,6 20 29 0,0
15.07.2018 06:00:00 16,0 13,7 15,6 28,4 6 3 10 6 NO 1016,1 20 0 0,0
15.07.2018 05:00:00 16,6 13,9 16,0 28,6 6 3 10 6 NNO 1015,7 20 0 0,0
15.07.2018 04:00:00 17,2 14,3 16,2 28,8 6 3 9 5 NO 1015,7 20 0 0,0
15.07.2018 03:00:00 17,8 14,3 17,1 29,0 0 0 7 4 N 1015,7 20 0 0,0
15.07.2018 02:00:00 19,2 14,9 18,1 29,2 6 3 10 6 OZO 1015,7 20 0 0,0
15.07.2018 01:00:00 20,5 14,8 19,6 29,3 3 2 10 5 ZO 1015,6 20 0 0,0
15.07.2018 00:00:00 21,2 15,1 20,2 29,4 4 2 9 5 ONO 1015,3 20 0 0,0
14.07.2018 23:00:00 23,3 15,4 21,8 29,5 2 1 5 3 OZO 1014,6 20 0 0,0
14.07.2018 22:00:00 25,3 15,0 24,7 29,5 4 2 10 5 ZO 1013,7 20 0 0,0
14.07.2018 21:00:00 27,6 14,9 27,5 29,4 7 4 17 9 W 1012,8 20 0 0,0
14.07.2018 20:00:00 29,2 14,2 30,1 29,3 13 7 25 14 ZZW 1012,4 20 23 0,0
14.07.2018 19:00:00 30,4 14,1 33,0 29,1 19 11 32 17 ZZW 1012,3 20 18 0,0
14.07.2018 18:00:00 32,2 14,3 35,9 28,8 21 11 32 17 ZZW 1012,1 20 49 0,0
14.07.2018 17:00:00 32,7 14,3 36,5 28,5 22 12 32 18 ZW 1012,4 20 26 0,0
14.07.2018 16:00:00 32,3 12,0 37,9 28,2 10 6 28 15 Z 1012,5 20 18 0,0
14.07.2018 15:00:00 32,1 10,7 37,7 27,9 14 8 23 13 ZZW 1013,0 20 18 0,0
14.07.2018 14:00:00 32,3 11,5 37,9 27,7 8 4 16 9 Z 1013,4 6 41 0,0
14.07.2018 13:00:00 30,0 13,3 37,6 27,6 5 3 18 10 O 1014,1 20 34 0,0
14.07.2018 12:00:00 28,1 14,0 26,0 27,6 9 5 24 13 NO 1014,8 20 52 0,0
14.07.2018 11:00:00 23,8 13,3 26,1 27,7 11 6 23 12 NO 1016,4 20 1 0,0
14.07.2018 10:00:00 23,1 13,3 24,0 27,9 10 6 25 13 ONO 1016,5 20 1 0,0
14.07.2018 09:00:00 21,9 13,0 22,1 28,0 9 5 29 16 NNO 1017,1 20 27 0,0
14.07.2018 08:00:00 21,3 13,0 20,6 28,2 7 4 29 16 ONO 1016,8 20 30 0,0
14.07.2018 07:00:00 19,5 12,5 18,5 28,4 11 6 21 11 NO 1017,8 20 0 0,0
14.07.2018 06:00:00 18,7 12,7 17,5 28,6 6 3 18 10 ONO 1018,4 20 0 0,0
14.07.2018 05:00:00 16,9 12,6 17,2 28,9 6 3 13 7 NNO 1019,3 20 0 0,0
14.07.2018 04:00:00 17,1 12,8 17,0 29,1 7 4 12 7 NO 1018,9 20 0 0,0
14.07.2018 03:00:00 18,3 13,2 17,4 29,3 7 4 16 9 NO 1018,4 20 0 0,0
14.07.2018 02:00:00 18,6 12,6 17,7 29,5 4 2 8 4 ONO 1018,3 20 0 0,0
14.07.2018 01:00:00 19,7 12,9 18,7 29,7 0 0 10 5 N 1018,1 20 0 0,0
14.07.2018 00:00:00 20,8 13,0 19,4 29,8 2 1 8 4 NNW 1017,7 20 0 0,0
13.07.2018 23:00:00 22,6 13,1 21,3 29,9 4 2 10 5 ZZO 1016,9 20 0 0,0
13.07.2018 22:00:00 25,5 13,4 23,9 29,9 5 3 24 13 ZW 1015,6 20 0 0,0
13.07.2018 21:00:00 28,1 11,6 27,9 29,8 11 6 23 12 WZW 1014,2 20 24 0,0

tt = temperatuur
td = dauwpunt
tt 5cm = temperatuur 5cm
tt -20cm = temperatuur -20cm
ff = windsnelheid
fx = windstoten
dd = windrichting
ppp = luchtdruk
vv = zicht
sd = Zonneschijnduur
rr = neerslag

Weerstations in de omgeving